Home > Weather > Hamilton > Past weeks

Flag for Canada Past Weather in Hamilton, Ontario, Canada — Yesterday and Last 2 Weeks

Now
64 °F

Broken clouds.


Feels Like: 64 °F
Forecast: 63 / 73 °F
Wind: 9 mph from Northwest

Location: Hamilton Airport

Current Time: Jun 28, 2016 at 11:14:35 AM

Latest Report: Jun 28, 2016 at 10:00 AM


Visibility: 15 mi

Pressure: 29.97 "Hg

Humidity: 73%

Dew Point: 55 °F

Location of HamiltonLocation

Past Weather in Hamilton — Graph

°F

Hamilton Temperature Yesterday

Maximum temperature yesterday: 88 °F (at 3:00 PM)
Minimum temperature yesterday: 70 °F (at 5:00 AM)
Average temperature yesterday: 78 °F

High & Low Weather Summary for the Past Weeks

 TemperatureHumidityPressure
High88 °F (Jun 19, 3:00 PM)100% (Jun 15, 9:00 PM)30.30 "Hg (Jun 15, 9:00 PM)
Low48 °F (Jun 14, 6:00 AM)16% (Jun 14, 6:00 PM)29.72 "Hg (Jun 16, 1:00 PM)
Average69 °F58%29.99 "Hg
* Reported Jun 13 9:00 AM — Jun 28 9:00 AM, Hamilton, Weather by CustomWeather, © 2016

Note: Actual official high and low records may vary slightly from our data, if they occured in-between our weather recording intervals... More about our weather records

Advertising

Hamilton Weather History for the Previous 24 Hours

Scroll right to see more
 ConditionsComfort  
Time TempWeatherWind HumidityBarometerVisibility
9:00 AM
Tue, Jun 28
63 °FPartly sunny.10 mph77%29.97 "Hg15 mi
8:00 AM61 °FPartly sunny.8 mph83%29.96 "Hg15 mi
7:00 AM61 °FBroken clouds.8 mph77%29.95 "Hg15 mi
6:00 AM59 °FPassing clouds.10 mph82%29.95 "Hg15 mi
5:00 AM61 °FPassing clouds.6 mph83%29.94 "Hg15 mi
4:00 AM61 °FPassing clouds.7 mph83%29.93 "Hg15 mi
3:00 AM63 °FPassing clouds.5 mph77%29.92 "Hg15 mi
2:00 AM64 °FPassing clouds.5 mph73%29.91 "Hg15 mi
1:00 AM68 °FPassing clouds.8 mph64%29.92 "Hg15 mi
12:00 AM68 °FPassing clouds.6 mph73%29.91 "Hg15 mi
11:00 PM
Mon, Jun 27
72 °FPassing clouds.10 mph65%29.90 "Hg15 mi
10:00 PM75 °FPassing clouds.5 mph54%29.88 "Hg15 mi
9:00 PM77 °FBroken clouds.7 mph51%29.87 "Hg15 mi
8:00 PM81 °FPartly sunny.13 mph42%29.87 "Hg15 mi
7:00 PM84 °FPassing clouds.17 mph40%29.86 "Hg15 mi
6:00 PM84 °FPassing clouds.20 mph40%29.86 "Hg15 mi
5:00 PM86 °FScattered clouds.20 mph43%29.86 "Hg15 mi
4:00 PM86 °FPartly sunny.13 mph40%29.87 "Hg15 mi
3:00 PM88 °FPartly sunny.18 mph33%29.88 "Hg15 mi
2:00 PM86 °FBroken clouds.13 mph40%29.90 "Hg15 mi
1:00 PM86 °FScattered clouds.16 mph38%29.91 "Hg15 mi
12:00 PM84 °FScattered clouds.15 mph43%29.93 "Hg15 mi
11:00 AM82 °FPassing clouds.12 mph55%29.93 "Hg15 mi
Weather by CustomWeather, © 2016

See weather overviewHow to use our weather pages